[[{"header":{"parameterUnit":"m.s-1","parameterCategory":1,"la1":30.2991,"la2":30.254,"lo1":-89.0895,"lo2":-89.0444,"dy":0.0017,"dx":0.0017,"nx":28,"ny":28,"refTime":"2023-11-10T09:00:00:Z","depth":0,"parameterNumber":2,"parameterNumberName":"U-component_of_WINDS"},"data":[0,0,0,0,0,0,0,0,0,0,0,0,0,0,0,0,0,0,0,0,0,0,0,0,0,0,0,0,0,0,0,0,0,0,0,0,0,0,0,0,0,0,0,0,0,0,0,0,0,0,0,0,0,0,0,0,0,0,-4.0121,-4.0121,0,-4.0053,-4.0052,-4.0052,-3.9964,-3.9962,-3.9961,-3.9959,-3.9888,-3.9887,-3.9887,0,0,0,0,0,0,0,0,0,0,0,0,0,-4.0175,-4.0175,-4.0122,-4.0121,-4.012,-4.0053,-4.0052,-4.0051,-3.9964,-3.9962,-3.996,-3.9959,-3.9888,-3.9887,-3.9887,0,0,0,0,0,0,0,0,0,0,0,0,0,-4.0134,-4.0175,-4.0122,-4.0068,-4.0063,-4.0054,-4.0052,-4.0051,-3.9964,-3.9962,-3.996,-3.9958,-3.9888,-3.9887,-3.9887,-3.9924,0,0,-3.9884,-3.9884,0,0,0,0,0,0,0,0,-4.0136,-4.0132,-4.0077,-4.0072,-4.0066,-4.0015,-4.0045,-4.0009,-3.9965,-4.0002,-3.9959,-3.9957,-3.9932,-3.9927,-3.9919,-3.9921,-3.9918,-3.9884,-3.9883,-3.9883,-3.9883,0,0,0,0,0,0,0,-4.0139,-4.0135,-4.0094,-4.0076,-4.0069,-4.0047,-4.0039,-4.0038,-3.9979,-3.9998,-3.9992,-3.9985,-3.9928,-3.992,-3.9917,-3.9916,-3.9884,-3.9883,-3.9883,-3.9882,-3.9945,-3.9947,0,0,0,0,0,0,-4.015,-4.0138,-4.0097,-4.0092,-4.0097,-4.0048,-4.0039,-4.0033,-3.9979,-3.9969,-3.9987,-3.9981,-3.9923,-3.9918,-3.9914,-3.9953,-3.9883,-3.9882,-3.9882,-3.9943,-3.9946,-3.9948,0,0,0,0,0,0,-4.0152,-4.0148,-4.0099,-4.0113,-4.0105,-4.0049,-4.0044,-4.0033,-4.0025,-3.9971,-3.996,-3.9989,-3.9921,-3.9915,-3.9922,-3.9949,-3.9882,-3.9881,-3.9941,-3.9944,-3.9947,-4.0033,0,0,0,0,0,0,-4.0154,-4.0149,-4.0162,-4.0114,-4.0105,-4.0109,-4.0046,-4.0033,-4.0024,-4.0015,-3.997,-3.996,-3.9919,-3.9924,-3.9921,-3.9947,-3.988,-3.9938,-3.9942,-3.9946,-4.0028,-4.0039,-4.0049,0,0,0,0,0,-4.0156,-4.0189,-4.0163,-4.0159,-4.0121,-4.0111,-4.0106,-4.0057,-4.0026,-4.0039,-4.0005,-3.9962,-3.9948,-3.9925,-3.9922,-3.9948,-3.9936,-3.9941,-3.9946,-4.0023,-4.0037,-4.0049,0,0,0,0,0,0,-4.0241,-4.0181,-4.0153,-4.0171,-4.0147,-4.0096,-4.0111,-4.0074,-4.0058,-4.005,-3.9991,-3.9982,-3.9996,-3.9973,-3.9949,-3.9981,-3.9935,-3.994,-3.9995,-4.0008,-4.0019,-4.0023,-3.988,0,0,0,0,0,-4.0262,-4.0259,-4.0207,-4.0229,-4.0218,-4.0167,-4.0161,-4.0126,-4.0099,-4.0088,-4.0053,-4.0028,-4.0018,-4.0012,-3.9999,-4.0025,-4.0013,-4.0041,-4.0052,-4.0061,-4.0064,-4.0075,-4.0087,-3.9964,-3.9964,-3.9964,0,0,-4.0305,-4.0272,-4.0274,-4.0245,-4.0222,-4.022,-4.0159,-4.0159,-4.0157,-4.0087,-4.0092,-4.0067,-4.0034,-4.0051,-4.0056,-4.0031,-4.0096,-4.0067,-4.0074,-4.0073,-4.0082,-4.0093,-4.0104,-3.9968,-3.9967,-3.9967,0,0,-4.0381,-4.0357,-4.0371,-4.035,-4.0317,-4.0283,-4.0287,-4.0243,-4.0223,-4.0227,-4.0175,-4.0172,-4.0155,-4.0134,-4.0121,-4.0193,-4.0152,-4.0191,-4.0245,-4.0257,-4.0266,-4.0274,-4.0298,-4.0308,-4.0195,-4.0195,-4.0195,0,-4.0438,-4.0433,-4.0383,-4.0387,-4.0376,-4.0315,-4.0329,-4.0311,-4.0275,-4.0268,-4.0242,-4.0221,-4.0195,-4.0205,-4.0223,-4.0215,-4.0217,-4.0194,-4.0269,-4.0277,-4.0284,-4.0306,-4.0315,-4.02,-4.02,-4.0199,-4.0199,0,-4.0505,-4.0502,-4.0518,-4.0486,-4.0477,-4.0486,-4.0438,-4.0434,-4.0402,-4.0371,-4.0376,-4.0343,-4.0322,-4.0323,-4.029,-4.0329,-4.0315,-4.028,-4.0232,-4.0301,-4.0321,-4.0329,-4.0207,-4.0205,-4.0204,-4.0203,0,0,-4.0629,-4.0571,-4.0578,-4.0562,-4.0522,-4.0519,-4.0527,-4.0508,-4.0505,-4.0484,-4.0487,-4.0476,-4.0444,-4.043,-4.0395,-4.0405,-4.0463,-4.0368,-4.0367,-4.0386,-4.0502,-4.0527,-4.0537,-4.0437,-4.0438,-4.0439,-4.0504,0,-4.0697,-4.0705,-4.0661,-4.0681,-4.0678,-4.0621,-4.0626,-4.0603,-4.0575,-4.0568,-4.0537,-4.0529,-4.0488,-4.0479,-4.0487,-4.0454,-4.0485,-4.0449,-4.0438,-4.0438,-4.0445,-4.0548,-4.0574,-4.0636,-4.0512,-4.0513,-4.0514,0,-4.0775,-4.0759,-4.0778,-4.0738,-4.0735,-4.0741,-4.072,-4.0715,-4.0687,-4.0666,-4.0652,-4.0612,-4.0616,-4.0573,-4.0576,-4.0553,-4.0547,-4.053,-4.0531,-4.0526,-4.0478,-4.0544,-4.0655,-4.0664,-4.0526,-4.0525,-4.0524,0,-4.0862,-4.0845,-4.0854,-4.0844,-4.0797,-4.0803,-4.0784,-4.0754,-4.0745,-4.0728,-4.0722,-4.0705,-4.0695,-4.0683,-4.064,-4.0613,-4.0648,-4.0602,-4.063,-4.0631,-4.0637,-4.0637,-4.0747,-4.0638,-4.0638,-4.0637,-4.0637,0,-4.094,-4.0954,-4.0893,-4.0898,-4.0912,-4.0863,-4.0878,-4.0853,-4.0828,-4.0827,-4.0777,-4.0778,-4.0722,-4.0716,-4.0683,-4.069,-4.0687,-4.0669,-4.066,-4.0672,-4.0674,-4.0665,-4.0658,-4.064,-4.0639,-4.0639,-4.0638,0,-4.1038,-4.0998,-4.1004,-4.0961,-4.095,-4.0962,-4.0925,-4.0928,-4.0898,-4.0898,-4.0895,-4.0848,-4.0839,-4.0796,-4.0776,-4.0754,-4.0772,-4.0755,-4.0781,-4.0775,-4.0804,-4.0801,-4.091,-4.0921,-4.0808,-4.0809,-4.081,0,-4.1089,-4.1099,-4.1057,-4.1053,-4.1037,-4.1032,-4.1023,-4.0976,-4.0969,-4.0939,-4.0946,-4.0933,-4.092,-4.0908,-4.0872,-4.0857,-4.0837,-4.0877,-4.0835,-4.0847,-4.0836,-4.0835,-4.0835,-4.0885,-4.0886,-4.0888,-4.0889,0,-4.1184,-4.1164,-4.1154,-4.1138,-4.113,-4.1115,-4.1096,-4.1096,-4.1044,-4.1039,-4.1029,-4.102,-4.1001,-4.0988,-4.0967,-4.0947,-4.0909,-4.0903,-4.0908,-4.0919,-4.0934,-4.0925,-4.0803,-4.09,-4.0899,-4.0898,-4.0897,-4.0897,-4.1258,-4.1264,-4.1235,-4.1226,-4.1208,-4.1193,-4.1193,-4.1165,-4.1156,-4.1137,-4.111,-4.1104,-4.1077,-4.1045,-4.1029,-4.1023,-4.1001,-4.1009,-4.1011,-4.1013,-4.1019,-4.0938,-4.1019,-4.1019,-4.1019,-4.1018,-4.1018,0,-4.1348,-4.1328,-4.132,-4.1297,-4.129,-4.1257,-4.1236,-4.1231,-4.1227,-4.1206,-4.1194,-4.1184,-4.1172,-4.1136,-4.112,-4.1123,-4.1105,-4.112,-4.1118,-4.1114,-4.104,-4.1036,-4.1135,-4.1135,-4.1135,-4.1135,-4.1135,-4.1135,-4.1394,-4.1401,-4.1379,-4.1377,-4.1356,-4.135,-4.1341,-4.1327,-4.1309,-4.13,-4.129,-4.1267,-4.124,-4.1222,-4.121,-4.1199,-4.1195,-4.1216,-4.1199,-4.113,-4.1119,-4.1108,-4.1104,-4.1216,-4.1216,-4.1273,-4.1274,-4.1274]},{"header":{"parameterUnit":"m.s-1","parameterCategory":1,"la1":30.2991,"la2":30.254,"lo1":-89.0895,"lo2":-89.0444,"dy":0.0017,"dx":0.0017,"nx":28,"ny":28,"refTime":"2023-11-10T09:00:00:Z","depth":0,"parameterNumber":3,"parameterNumberName":"V-component_of_WINDS"},"data":[0,0,0,0,0,0,0,0,0,0,0,0,0,0,0,0,0,0,0,0,0,0,0,0,0,0,0,0,0,0,0,0,0,0,0,0,0,0,0,0,0,0,0,0,0,0,0,0,0,0,0,0,0,0,0,0,0,0,0.81,0.81,0,0.8059,0.8058,0.8058,0.8015,0.8014,0.8014,0.8013,0.7971,0.797,0.7969,0,0,0,0,0,0,0,0,0,0,0,0,0,0.8145,0.8145,0.81,0.81,0.8099,0.8059,0.8058,0.8057,0.8015,0.8014,0.8014,0.8013,0.7971,0.797,0.7969,0,0,0,0,0,0,0,0,0,0,0,0,0,0.8117,0.8144,0.81,0.8073,0.807,0.8059,0.8058,0.8057,0.8015,0.8014,0.8013,0.8013,0.7971,0.797,0.7969,0.7981,0,0,0.7967,0.7966,0,0,0,0,0,0,0,0,0.8119,0.8115,0.8077,0.8075,0.8072,0.8041,0.8058,0.8032,0.8015,0.8036,0.8013,0.8012,0.7995,0.7992,0.7986,0.7979,0.7978,0.7966,0.7966,0.7966,0.7965,0,0,0,0,0,0,0,0.8121,0.8117,0.8084,0.8077,0.8073,0.8064,0.8059,0.8053,0.8021,0.8034,0.8031,0.8027,0.7993,0.7987,0.7985,0.7977,0.7967,0.7966,0.7965,0.7965,0.7982,0.7983,0,0,0,0,0,0,0.8126,0.8119,0.8085,0.8082,0.8093,0.8064,0.8058,0.8052,0.8021,0.8015,0.8027,0.8025,0.7989,0.7986,0.7983,0.7997,0.7966,0.7965,0.7964,0.7981,0.7982,0.7983,0,0,0,0,0,0,0.8128,0.8124,0.8087,0.81,0.8094,0.8064,0.8057,0.8051,0.8045,0.8016,0.801,0.8027,0.7988,0.7984,0.7983,0.7995,0.7964,0.7964,0.798,0.7982,0.7983,0.8025,0,0,0,0,0,0,0.8129,0.8124,0.8128,0.81,0.8094,0.8087,0.8058,0.8051,0.8044,0.804,0.8014,0.8009,0.7987,0.7985,0.7982,0.7993,0.7963,0.7979,0.7981,0.7982,0.8022,0.8028,0.8032,0,0,0,0,0,0.8131,0.814,0.8128,0.8124,0.8097,0.8087,0.8084,0.8059,0.8045,0.8049,0.8031,0.8009,0.7994,0.7985,0.7982,0.7993,0.7978,0.798,0.7982,0.802,0.8027,0.8032,0,0,0,0,0,0,0.8169,0.8136,0.8122,0.8123,0.8109,0.808,0.8084,0.8066,0.8055,0.8052,0.8021,0.8016,0.8019,0.8006,0.7995,0.8005,0.7983,0.7985,0.8013,0.8019,0.8024,0.8027,0.7962,0,0,0,0,0,0.8178,0.8172,0.8144,0.8147,0.8141,0.8114,0.8109,0.8091,0.8075,0.8068,0.8049,0.8035,0.8027,0.8022,0.8013,0.8021,0.8016,0.8027,0.8032,0.8037,0.8038,0.8045,0.805,0.7991,0.7991,0.7991,0,0,0.8196,0.8177,0.8175,0.8155,0.8141,0.8138,0.8109,0.8105,0.8102,0.8067,0.8066,0.8052,0.8034,0.8038,0.8039,0.8027,0.8054,0.8039,0.8043,0.8043,0.8048,0.8053,0.8058,0.7992,0.7992,0.7992,0,0,0.8226,0.8211,0.8213,0.8201,0.8182,0.8165,0.8166,0.8141,0.8131,0.8129,0.8104,0.81,0.8087,0.8076,0.8068,0.81,0.8081,0.8097,0.8123,0.813,0.8135,0.8139,0.8152,0.8157,0.8099,0.81,0.81,0,0.825,0.8243,0.8217,0.8216,0.8209,0.8179,0.8183,0.8172,0.8151,0.8147,0.8135,0.812,0.8105,0.8108,0.8116,0.811,0.8112,0.81,0.8136,0.814,0.8143,0.8155,0.816,0.8102,0.8102,0.8101,0.8101,0,0.8275,0.827,0.8275,0.8257,0.825,0.8251,0.8228,0.8224,0.8209,0.8193,0.8194,0.8175,0.8164,0.8163,0.8147,0.8165,0.8158,0.8141,0.8119,0.8152,0.8163,0.8167,0.8105,0.8104,0.8104,0.8103,0,0,0.8325,0.8296,0.8298,0.8291,0.827,0.8266,0.8267,0.8257,0.8256,0.8243,0.8245,0.8236,0.8222,0.8213,0.8196,0.8202,0.8231,0.8184,0.8183,0.8195,0.8252,0.8266,0.8272,0.8218,0.8219,0.822,0.8255,0,0.8353,0.8353,0.8332,0.8338,0.8336,0.8309,0.8311,0.8299,0.8285,0.8282,0.8267,0.8262,0.8242,0.8237,0.8242,0.8226,0.8242,0.8223,0.8221,0.8221,0.8227,0.8277,0.8291,0.8324,0.8258,0.8259,0.826,0,0.8384,0.8376,0.8382,0.8364,0.8362,0.8364,0.8354,0.8351,0.8338,0.8328,0.8321,0.8302,0.8304,0.8283,0.8287,0.8275,0.8273,0.8265,0.8266,0.8265,0.8243,0.8279,0.8334,0.834,0.8266,0.8265,0.8265,0,0.8423,0.8413,0.8416,0.8411,0.8389,0.8392,0.8383,0.8369,0.8365,0.8357,0.8355,0.8347,0.8343,0.8339,0.8319,0.8305,0.8326,0.8303,0.8319,0.832,0.8325,0.8325,0.8382,0.8322,0.8322,0.8322,0.8321,0,0.8457,0.8462,0.8434,0.8436,0.8443,0.842,0.8427,0.8416,0.8405,0.8405,0.8382,0.8383,0.8357,0.8356,0.8341,0.8348,0.8345,0.8339,0.8335,0.8342,0.8343,0.834,0.8338,0.8323,0.8323,0.8322,0.8322,0,0.8501,0.8482,0.8484,0.8465,0.846,0.8466,0.845,0.8452,0.8439,0.844,0.8439,0.8418,0.8416,0.8397,0.839,0.838,0.8394,0.8384,0.8398,0.8396,0.8414,0.8413,0.8472,0.848,0.8414,0.8415,0.8415,0,0.8523,0.8527,0.8509,0.8509,0.8501,0.85,0.8497,0.8475,0.8473,0.8461,0.8466,0.8462,0.8458,0.8457,0.8442,0.8437,0.8429,0.845,0.8428,0.8436,0.8432,0.8432,0.8434,0.8455,0.8456,0.8456,0.8457,0,0.8566,0.8558,0.8554,0.8549,0.8547,0.8541,0.8534,0.8535,0.8511,0.8511,0.8509,0.8507,0.8502,0.8499,0.8493,0.8485,0.8468,0.8464,0.8468,0.8475,0.8484,0.8482,0.8412,0.8463,0.8462,0.8462,0.8461,0.8461,0.8602,0.8605,0.8594,0.8592,0.8586,0.8581,0.8583,0.8571,0.8569,0.8564,0.8552,0.8553,0.8543,0.8533,0.8527,0.8529,0.8518,0.8523,0.8525,0.8527,0.8532,0.8483,0.8528,0.8527,0.8527,0.8527,0.8527,0,0.8645,0.8638,0.8636,0.8629,0.8628,0.8613,0.8605,0.8606,0.8608,0.86,0.8598,0.8598,0.8597,0.8583,0.858,0.8585,0.8577,0.8585,0.8585,0.8584,0.854,0.8538,0.8592,0.8592,0.8592,0.8592,0.8592,0.8592,0.8668,0.8675,0.8666,0.867,0.8663,0.8664,0.8662,0.8658,0.8653,0.8654,0.8654,0.8645,0.8636,0.8633,0.8632,0.8628,0.8629,0.864,0.8634,0.8593,0.8587,0.8581,0.8579,0.864,0.864,0.8678,0.8678,0.8679]}]]